Location: ????? ???????
(25.7275°N, 32.5929°E)
Time: 10:38:41
(UTC+00:00)

Okean-O - Pass Details

Date: 02 March 2021
Orbit: 639 x 640 km, 98.2° (Epoch: 15 April)

Event Time Altitude Azimuth Distance (km) Brightness Sun altitude
Rises 16:15:27 0° 147° (SSE) 2,930 5.7 -6.1°
Reaches altitude 10° 16:17:48 10° 138° (SE) 2,024 4.8 -6.6°
Maximum altitude 16:21:45 33° 74° (ENE) 1,070 3.3 -7.5°
Drops below altitude 10° 16:25:44 10° 10° (N) 2,032 5.1 -8.4°
Sets 16:28:05 0° 1° (N) 2,944 6.0 -8.9°
